Location: Lane
(33.5226°N, 79.8788°W)
Time: 13:46:49
(UTC+00:00)

Tiros 1 despin weight - Pass Details

Date: 08 October 2022
Orbit: 590 x 637 km, 48.2° (Epoch: 25 November)

Event Time Altitude Azimuth Distance (km) Brightness Sun altitude
Rises 02:07:31 0° 304° (NW) 2,892 ? -40.0°
Enters shadow 02:09:49 10° 301° (WNW) 2,002 ? -40.5°
Reaches altitude 10° 02:09:51 10° 301° (WNW) 1,991 - -40.5°
Maximum altitude 02:14:20 57° 223° (SW) 739 - -41.3°
Drops below altitude 10° 02:18:53 10° 144° (SE) 2,006 - -42.2°
Sets 02:21:14 0° 141° (SE) 2,915 - -42.6°
